Dewpoint
71 71 72 72 72 72 72 73 73 73 73 73 73 73 74 74 74 74 74 74 74 74 73 73 73 73 73 74 74 74 74 74 74 74 74 73 73 73 73 73 73 73 73 74 74 74 74 73 71 70 69 69 69 69 69 69 68 67 67 69 70 70 71 73 74 74 73 73 73 73 73 73 73 73 73 73 72 72 71 71 71 71 71 71 71 71 71 71 71 71 71 71 71 71 72 72 73 73 73 74 74 74 74
71 72 72 72 72 72 72 73 73 73 73 73 73 73 74 74 74 74 74 74 74 73 73 73 73 73 73 74 74 74 74 74 74 74 74 74 73 73 73 73 73 73 74 74 74 74 74 72 71 69 69 69 68 69 69 68 67 67 67 68 69 70 71 73 74 74 73 73 73 73 73 73 73 73 73 73 72 72 71 71 71 71 71 71 71 71 71 71 71 71 71 71 71 71 71 72 73 73 73 74 74 74 74
72 72 72 72 72 72 72 72 73 73 73 73 73 73 73 73 74 74 74 74 73 73 73 73 73 73 73 74 74 74 74 74 74 74 74 74 74 73 73 73 73 74 74 74 74 74 73 72 70 69 69 68 68 68 69 67 66 66 67 68 69 70 71 73 74 74 74 73 73 73 72 72 73 73 73 73 73 72 71 71 71 71 71 71 71 71 71 71 72 72 72 71 71 71 71 72 72 73 73 73 73 73 73
72 72 72 73 73 72 72 72 72 72 72 72 72 73 73 73 73 73 73 73 73 73 73 73 73 73 73 73 74 74 74 74 74 74 74 74 74 74 73 73 73 74 74 74 74 73 72 72 71 69 69 68 68 68 69 69 67 66 66 68 69 70 71 73 74 74 74 73 73 73 73 73 73 73 73 73 73 72 71 71 71 71 71 71 71 71 71 71 71 71 71 71 71 71 71 71 72 73 73 73 73 73 73
72 72 72 73 73 73 72 72 72 71 71 71 72 72 72 73 73 73 73 73 73 73 73 73 73 73 73 73 74 74 74 74 74 74 74 74 74 74 74 73 74 74 74 74 74 73 71 71 71 70 68 68 68 68 69 69 68 66 66 67 68 70 72 74 74 74 73 73 73 73 73 73 73 73 73 73 73 72 71 71 71 71 71 71 71 71 71 71 71 71 71 71 71 71 71 71 72 72 73 73 73 72 72
72 72 72 73 73 72 72 72 72 71 71 71 71 71 72 72 72 72 72 73 73 73 73 73 73 73 73 73 73 74 74 74 74 74 74 74 74 74 74 74 74 74 74 74 73 73 71 69 69 68 68 68 68 68 69 68 67 66 66 66 68 70 72 74 74 74 73 73 73 73 73 73 73 73 73 73 73 72 71 71 71 71 71 71 71 71 71 71 71 71 71 71 71 71 71 71 71 72 72 72 72 72 72
71 72 72 72 72 72 71 71 71 72 72 71 71 71 71 72 72 72 72 72 73 73 73 73 73 73 73 73 73 73 73 73 73 74 74 74 74 74 74 74 74 74 74 74 73 72 71 69 68 68 67 67 67 67 67 66 66 65 65 66 69 71 72 74 74 74 74 74 73 73 73 73 73 73 73 73 72 72 71 71 71 71 71 71 71 71 71 71 71 71 70 70 71 71 71 71 71 71 72 72 72 72 72
71 72 72 72 72 72 71 71 72 72 72 72 71 71 71 71 71 72 72 72 72 73 73 73 73 73 73 73 73 73 73 73 73 73 74 74 74 74 74 74 74 74 74 74 73 73 71 69 68 67 67 67 66 66 66 65 65 65 65 67 69 71 72 74 74 74 74 74 74 73 73 73 73 72 72 72 72 72 71 71 71 71 71 71 71 71 71 71 71 70 70 70 70 71 71 71 71 71 71 72 72 72 72
71 72 72 72 72 72 72 72 72 72 72 72 72 72 71 71 71 71 71 72 72 72 72 72 72 72 72 72 72 73 73 73 73 73 73 74 74 74 74 74 74 74 74 73 73 73 72 70 68 68 67 67 67 67 67 66 65 65 65 68 70 71 73 74 75 74 74 74 74 73 73 73 72 72 72 72 72 72 71 71 71 71 71 71 71 71 71 71 70 70 70 69 70 70 71 71 71 71 71 72 72 72 72
72 72 73 73 73 73 72 72 72 72 72 71 71 71 71 71 72 71 71 71 71 72 72 72 72 72 72 72 72 72 73 73 73 73 73 73 74 74 74 74 74 74 73 73 73 73 72 70 69 68 68 68 68 68 69 67 66 65 63 67 70 72 73 74 74 74 74 73 73 73 73 72 72 72 72 72 72 71 71 71 71 71 71 71 71 71 70 70 70 70 69 69 69 70 70 71 71 71 71 71 72 72 72
72 73 73 73 73 73 73 72 72 72 72 72 71 71 71 71 72 72 71 71 71 71 71 71 72 72 72 72 72 72 72 73 73 73 73 73 73 74 74 74 73 73 73 73 73 72 72 71 69 68 69 68 69 69 68 67 66 65 63 67 71 73 74 74 74 74 73 73 73 73 72 72 72 72 72 72 71 71 71 71 71 71 71 71 71 71 70 70 70 70 69 69 69 69 70 71 71 71 71 71 71 72 72
72 72 73 73 73 73 73 72 72 72 72 72 72 71 71 71 72 71 71 71 71 71 71 71 71 72 72 72 72 72 72 73 73 73 73 73 73 73 73 73 73 73 73 73 72 72 72 71 69 69 69 68 69 69 68 67 66 65 64 67 71 73 75 75 74 74 73 73 73 72 72 72 72 72 72 71 71 71 71 71 71 71 71 71 71 70 70 70 70 70 69 68 68 69 69 70 71 71 71 71 71 71 72
72 72 72 72 72 72 72 72 72 72 72 72 72 72 72 72 72 71 71 71 71 71 71 71 71 71 72 72 72 73 73 73 73 73 73 74 73 73 73 73 73 72 72 72 72 71 71 70 69 69 69 69 69 68 68 67 66 65 66 69 71 73 75 75 74 73 73 73 72 72 72 72 72 72 71 71 71 71 71 71 71 71 71 71 70 70 70 70 70 69 69 68 68 68 69 70 71 71 71 71 71 71 72
72 72 71 71 71 71 72 72 71 71 71 71 71 72 72 71 71 71 71 71 71 71 71 71 71 71 71 72 72 73 73 73 73 73 73 73 73 73 73 73 72 72 72 72 71 70 70 69 69 69 69 69 69 68 69 67 66 66 67 69 71 73 75 75 74 74 73 73 72 72 72 72 72 72 71 71 71 71 71 71 71 71 71 71 70 70 70 70 70 69 69 69 68 68 69 70 71 71 71 71 71 71 71
71 71 71 71 71 71 71 71 71 71 71 71 71 71 71 71 71 71 71 71 71 71 71 71 71 71 72 72 72 72 72 73 73 73 73 73 73 73 72 72 72 72 72 71 70 69 69 69 69 69 69 69 68 68 69 67 66 66 68 70 71 73 75 74 74 74 73 73 73 72 72 72 72 71 71 71 71 71 71 71 71 71 71 71 71 70 70 70 70 69 69 69 68 69 69 70 70 71 71 71 71 71 71
70 70 70 70 71 71 71 71 71 71 71 71 71 71 71 71 71 71 71 71 71 71 71 71 71 72 72 72 72 72 71 71 72 72 72 72 72 72 72 72 71 71 71 69 69 68 69 68 69 69 69 69 68 68 68 66 66 66 69 70 72 73 74 74 74 74 73 73 72 72 72 72 72 71 71 71 71 71 71 71 71 71 71 71 71 70 70 70 70 69 69 69 69 69 69 70 70 71 71 71 71 71 71
69 69 70 70 70 71 71 71 71 71 71 71 71 71 71 71 71 70 70 70 71 71 71 71 71 72 72 72 72 71 70 70 70 71 71 72 72 72 72 71 71 71 70 68 68 68 68 68 69 69 69 69 68 68 67 66 66 67 69 71 72 74 74 74 74 74 73 72 72 72 72 72 72 72 71 71 71 71 71 71 71 71 71 71 71 70 70 70 70 69 69 69 69 69 69 70 70 71 71 71 71 71 71
68 69 70 70 70 70 71 71 71 71 71 71 71 70 70 70 70 70 70 70 70 71 71 71 71 72 72 72 71 70 69 68 68 69 70 71 71 71 71 71 71 70 68 68 68 67 68 68 69 69 69 69 68 68 67 66 66 68 69 71 73 74 74 74 74 73 73 72 72 72 72 72 72 72 71 71 71 71 71 71 71 71 71 71 71 71 70 70 70 69 69 69 69 69 69 70 70 70 71 71 71 71 71
67 68 69 70 70 70 70 70 71 71 71 71 71 70 70 70 70 70 70 70 70 71 71 71 71 72 72 71 71 70 69 68 68 68 68 69 70 70 70 71 71 69 68 68 67 67 67 68 68 69 69 69 68 68 68 66 67 68 70 72 73 74 74 74 74 73 73 72 72 72 72 72 72 72 72 71 71 71 71 71 71 71 71 71 71 71 70 70 70 70 69 69 69 69 69 69 70 70 70 70 70 71 71
67 68 69 69 70 70 70 70 70 70 71 71 70 70 70 70 70 70 71 70 70 71 71 71 71 71 71 71 69 68 67 67 68 68 68 68 68 68 69 70 70 70 69 68 67 67 67 67 68 68 69 69 69 68 68 67 67 68 70 72 73 74 74 74 74 73 73 72 72 72 72 72 72 72 72 72 71 71 71 71 71 71 71 71 71 71 70 70 70 70 70 69 69 69 69 69 69 69 70 70 70 70 70
66 66 67 68 69 69 70 70 70 70 70 70 70 69 68 68 69 70 70 70 70 70 71 71 71 70 70 68 67 66 66 66 67 67 68 67 66 67 68 69 69 70 70 69 68 67 67 68 68 68 68 68 68 68 67 67 67 68 70 71 73 74 74 74 73 73 72 72 72 72 72 72 72 72 72 72 71 71 71 71 71 71 71 71 71 71 70 70 70 70 70 70 69 69 69 69 69 69 69 69 70 70 70
64 65 66 67 68 68 68 68 68 68 68 69 69 67 66 67 67 67 68 68 68 68 69 69 69 68 68 67 66 66 65 66 66 67 67 67 66 66 67 67 68 69 69 69 69 68 68 68 68 68 68 68 68 68 67 67 67 68 70 71 72 73 74 73 73 73 72 72 72 72 72 72 72 72 72 72 72 71 71 71 71 71 71 71 71 71 70 70 70 70 70 70 70 69 69 69 69 69 69 69 69 69 70
65 65 66 67 67 68 68 67 67 67 67 68 68 67 66 66 66 66 66 66 66 66 66 67 67 67 67 67 67 66 66 66 66 66 67 67 67 67 66 67 67 68 69 69 69 68 68 68 68 68 68 68 68 68 68 67 67 68 69 71 72 73 73 73 73 72 72 72 72 72 71 71 72 72 72 72 72 72 71 71 71 71 71 71 71 71 70 70 70 70 70 70 70 70 70 69 69 69 69 69 69 69 69
66 66 66 67 67 67 67 67 67 67 67 67 67 67 67 66 66 66 65 66 66 65 65 66 66 67 67 67 66 66 66 66 66 66 66 66 66 66 66 66 66 67 68 68 68 68 68 68 68 68 68 68 68 68 67 67 67 68 69 70 71 72 72 72 72 72 72 71 71 71 71 71 71 72 72 72 72 72 71 71 71 71 71 71 71 71 70 70 70 69 69 70 70 70 70 70 70 69 69 69 69 69 69
66 66 66 66 66 67 67 67 66 66 66 66 66 66 66 66 66 66 65 65 65 65 65 65 66 66 66 66 66 66 66 66 66 66 66 66 66 66 66 65 65 66 67 67 68 68 68 68 68 68 68 67 67 67 67 67 67 67 68 70 71 71 72 72 72 71 71 71 71 71 71 71 71 72 72 72 72 72 71 71 71 71 71 71 71 70 70 70 70 70 69 70 70 70 70 70 70 70 70 69 69 69 69
64 65 65 65 65 65 66 66 66 66 65 65 65 65 65 65 65 64 64 64 63 63 63 64 64 65 65 65 66 66 66 66 66 66 66 66 65 65 64 64 64 65 66 66 67 68 68 68 68 68 68 68 67 67 67 66 67 67 68 69 70 71 71 71 71 71 71 71 71 71 71 71 71 71 72 72 72 72 71 71 71 71 71 71 71 70 70 70 70 70 69 70 70 70 70 70 70 70 70 70 70 70 70
62 63 63 63 63 63 64 64 64 64 64 64 63 63 64 63 63 63 63 62 62 62 62 62 62 63 64 64 64 65 65 65 65 65 65 65 65 65 64 64 64 65 65 66 67 68 68 68 68 68 68 67 67 67 66 66 67 67 67 69 69 70 71 71 71 71 71 71 71 71 71 71 71 71 72 72 72 71 71 71 71 71 71 71 70 70 69 69 69 69 70 70 70 70 70 70 70 70 70 70 70 70 70
62 62 62 62 62 62 62 63 63 63 63 62 62 62 62 62 62 62 62 62 61 61 61 61 61 62 62 63 63 64 64 64 64 64 64 64 64 64 64 64 64 64 65 66 66 67 67 67 67 67 67 68 67 67 66 66 66 67 67 68 69 70 70 71 71 71 71 71 71 71 71 71 71 71 71 72 71 71 71 71 71 71 71 70 70 69 69 69 69 69 70 70 70 70 70 70 70 70 70 70 70 70 70
61 61 61 61 62 62 62 62 62 62 62 62 62 62 62 62 62 62 61 61 61 60 60 60 60 60 61 62 62 63 63 63 63 63 63 63 63 64 64 64 63 64 64 65 66 66 67 67 67 67 67 67 67 67 67 66 66 67 67 68 68 69 70 71 71 71 71 71 70 71 71 71 71 71 71 71 71 71 71 71 71 71 71 70 70 69 69 69 69 69 70 70 70 70 70 70 69 69 70 69 69 69 69
60 60 60 60 60 61 61 62 62 62 62 62 62 62 62 62 62 61 61 61 60 60 59 59 59 59 58 59 60 61 62 62 63 62 62 63 63 64 64 64 64 64 64 65 66 66 67 67 67 67 67 67 67 67 67 66 66 66 67 67 68 68 69 70 71 71 71 71 71 71 71 71 71 71 71 71 71 71 71 71 71 71 70 70 69 69 69 69 69 69 69 69 70 70 70 69 69 69 69 69 69 69 69
60 60 60 60 60 60 61 61 62 62 62 62 62 62 62 62 62 61 61 61 61 60 60 59 59 58 57 58 58 59 60 61 62 62 62 62 62 63 64 65 65 65 65 65 66 66 67 67 67 68 68 68 67 67 67 66 66 66 66 67 67 68 68 69 70 71 71 71 71 71 71 71 71 71 71 71 71 71 71 71 71 71 70 70 69 69 69 69 69 69 69 69 69 69 69 69 69 69 69 69 68 68 68
60 60 60 60 61 61 61 62 62 62 62 62 62 62 62 62 62 62 62 62 62 61 61 60 60 59 59 59 59 59 59 60 60 60 60 61 62 62 63 65 66 66 66 66 66 67 67 68 68 68 68 68 68 67 67 67 66 65 66 66 67 67 68 68 69 70 71 71 70 70 70 70 71 71 71 71 71 71 71 71 71 71 71 70 70 70 69 69 69 69 69 69 69 69 69 69 69 69 69 68 68 68 68
60 60 60 61 61 61 61 61 61 61 62 62 62 62 62 62 62 62 62 62 62 62 61 61 61 60 60 60 60 60 59 59 59 59 59 59 61 62 62 64 66 66 67 67 67 67 68 68 68 68 68 68 68 68 67 67 66 65 65 66 66 66 67 67 68 69 70 70 70 70 70 70 70 70 71 71 71 71 71 71 71 71 71 71 71 70 70 70 69 69 69 69 69 69 69 69 69 69 69 68 68 68 68
60 60 60 60 60 61 61 61 61 61 61 62 62 62 62 62 61 61 61 61 61 61 61 60 60 60 59 59 59 59 60 59 59 60 59 59 59 60 61 62 64 66 67 67 68 68 68 68 68 68 68 68 68 68 68 67 66 65 64 65 65 66 66 66 67 68 68 69 69 70 70 70 70 70 70 70 71 71 71 71 71 71 71 71 71 71 71 70 70 69 69 69 69 69 69 69 69 69 69 68 68 68 68
59 60 59 59 60 60 60 60 61 61 61 61 61 61 61 60 60 61 61 61 61 62 61 60 60 60 60 60 60 60 60 59 59 59 59 59 59 59 60 61 62 64 66 67 68 68 69 69 69 69 68 68 68 68 67 67 67 66 65 65 64 64 65 66 66 66 67 68 68 69 69 69 69 69 70 70 70 71 71 71 71 71 71 71 71 71 71 71 70 70 69 69 69 69 69 69 69 69 69 68 68 68 68
60 59 59 60 60 60 60 61 61 61 60 61 61 61 60 61 61 62 63 63 63 63 63 62 62 61 61 61 61 61 61 61 61 60 60 60 59 59 59 60 61 62 64 66 67 68 69 69 68 68 68 68 67 67 67 67 67 67 66 66 64 63 63 65 65 66 66 66 67 68 68 68 68 69 69 69 70 70 70 71 71 71 71 71 71 71 71 71 71 70 70 70 70 69 70 70 69 69 69 68 68 68 68
60 59 59 59 59 59 60 60 60 60 60 61 61 62 61 62 62 62 63 63 63 63 63 63 63 63 63 62 62 62 62 62 62 62 62 61 61 60 60 60 60 60 62 63 65 66 67 68 67 67 66 66 66 66 66 66 66 66 67 66 66 64 63 63 64 65 65 66 66 66 67 67 68 68 68 69 69 70 70 70 71 71 71 71 71 71 71 71 71 71 70 70 70 70 70 70 69 69 69 68 68 68 69
60 60 60 59 58 58 58 59 59 59 60 61 62 62 62 62 62 62 62 62 63 63 63 63 63 63 63 62 62 62 62 62 62 62 62 62 62 62 61 61 61 62 62 62 62 63 64 66 66 66 66 66 66 65 65 66 66 66 66 66 66 66 65 64 63 63 63 64 65 66 66 66 67 68 68 69 69 69 70 70 70 70 71 71 71 71 71 71 71 71 70 70 70 70 70 69 69 69 68 69 68 68 69
59 60 60 59 58 57 58 58 58 58 59 60 61 62 62 62 62 62 62 62 62 62 62 62 62 62 62 62 62 62 62 62 62 63 63 63 63 63 62 62 63 63 63 63 63 62 62 63 64 66 66 66 66 66 66 66 66 66 66 66 66 66 66 65 64 63 63 63 64 65 66 66 66 67 68 68 69 69 69 70 70 70 71 71 71 71 71 71 71 71 70 70 70 70 70 69 69 68 68 68 68 68 68
58 59 59 58 58 57 57 57 57 57 59 60 60 60 60 61 62 62 62 62 62 62 61 61 61 60 60 60 60 60 61 61 62 62 62 63 63 63 63 63 63 64 64 64 64 64 64 63 63 64 65 66 66 66 66 66 66 66 66 66 66 66 66 65 64 64 63 63 63 63 64 65 66 66 67 67 68 69 69 69 70 70 71 71 71 71 71 71 71 70 70 70 70 70 69 69 69 68 68 68 68 68 68
57 57 58 58 57 57 57 57 57 57 59 59 59 59 59 60 61 62 62 62 62 61 60 60 61 61 60 60 59 59 59 60 60 61 62 62 63 63 63 64 64 64 63 64 64 64 64 64 64 64 64 65 66 66 67 67 67 67 66 66 66 66 66 65 65 64 64 64 63 63 63 64 65 65 66 66 67 68 69 69 70 70 70 71 71 71 71 71 71 70 70 70 70 70 70 69 68 68 68 68 68 68 68
56 56 57 57 57 57 57 56 57 57 58 58 59 59 59 59 60 61 62 62 62 61 60 60 60 61 60 60 59 59 58 59 60 61 62 62 62 63 63 63 63 63 63 64 63 63 64 64 64 65 65 65 65 66 66 66 66 66 66 66 66 66 65 65 65 65 64 64 64 63 63 64 64 65 65 66 67 68 68 69 69 69 70 70 70 70 70 70 70 70 70 70 70 70 70 69 69 68 68 68 68 68 68
56 56 56 57 57 57 56 56 56 57 58 58 58 58 58 58 59 59 60 60 60 60 60 60 60 60 60 61 61 61 60 59 59 60 61 61 61 61 62 62 62 62 63 63 63 63 63 63 64 65 65 65 64 65 65 65 65 65 65 65 66 65 65 65 65 65 64 64 64 64 64 64 64 65 65 66 66 67 67 68 68 68 69 70 70 70 70 70 70 70 70 70 70 70 70 69 69 69 68 68 68 68 68
56 56 56 57 57 57 56 57 57 57 57 58 58 58 58 58 57 57 57 58 59 59 58 59 60 60 60 61 62 61 61 59 58 58 60 60 60 60 60 60 60 61 62 62 62 63 63 63 63 64 65 64 64 64 64 64 64 64 65 65 65 65 65 65 65 65 64 64 64 64 64 64 64 64 65 65 66 66 66 66 67 67 68 69 70 70 70 69 70 70 70 70 70 70 70 69 69 69 69 68 68 68 68
55 56 56 56 56 56 57 57 57 57 58 58 58 57 57 57 57 57 57 57 58 58 58 58 59 60 60 61 61 61 60 60 59 59 59 60 60 59 59 60 60 60 60 61 61 62 62 63 63 63 64 64 63 63 63 63 63 64 64 64 65 65 64 65 65 65 65 65 64 64 64 64 64 64 65 65 65 66 66 66 66 67 68 68 69 70 69 69 70 70 70 70 70 70 70 69 69 69 69 68 68 68 68
54 55 55 55 55 56 56 56 57 58 58 58 57 57 57 57 57 57 57 57 57 58 58 58 58 59 60 60 60 60 60 60 60 60 60 60 60 60 59 60 61 61 61 61 61 61 62 63 63 63 63 63 63 62 63 63 63 63 64 64 64 64 64 64 64 64 65 65 65 65 64 64 64 64 65 65 65 65 65 65 66 66 67 68 69 69 69 69 70 70 70 70 69 69 69 69 69 69 69 69 68 68 68
54 54 54 54 54 55 55 55 57 58 58 58 58 57 57 57 57 57 56 56 57 57 57 57 57 58 59 60 59 59 59 61 61 61 61 60 60 60 60 60 60 61 61 61 61 61 62 62 62 62 62 62 62 62 62 62 63 63 63 63 63 63 63 63 64 64 64 64 64 64 64 64 64 64 65 65 65 65 65 65 65 66 66 67 68 68 69 69 69 70 70 69 69 69 69 69 69 69 69 69 69 68 68
54 54 53 54 54 54 53 55 56 58 58 58 58 58 58 58 57 56 55 56 57 57 58 58 57 57 57 58 58 58 58 59 60 59 58 57 57 57 58 58 58 59 59 60 61 61 62 61 61 61 61 62 62 62 62 62 63 63 63 63 63 63 63 63 63 63 63 63 64 64 64 63 63 63 64 65 65 65 65 65 65 65 66 66 66 67 68 68 68 69 69 69 69 69 69 69 69 69 69 69 69 68 68
55 55 54 54 54 53 53 54 56 58 58 59 59 59 58 57 57 56 55 56 56 56 57 58 58 57 56 56 56 56 57 57 57 57 57 56 55 54 54 55 57 57 58 58 59 60 61 61 60 60 59 60 61 62 62 62 62 62 62 62 62 62 62 62 62 62 62 63 63 63 63 63 63 63 63 64 64 65 65 65 65 65 65 65 66 66 67 67 67 68 68 69 69 69 68 68 68 68 69 69 69 68 68
55 55 55 54 54 53 53 53 55 57 58 58 58 58 57 57 56 55 54 55 55 55 55 56 56 56 55 54 54 54 55 56 56 55 55 54 53 52 52 53 54 55 56 57 58 59 60 60 60 59 58 59 60 61 62 62 62 62 62 62 62 62 62 62 62 62 62 62 62 63 63 63 63 63 63 63 64 64 64 64 64 64 64 65 65 65 66 66 66 66 67 68 68 68 68 68 68 68 68 68 68 68 68
55 55 55 54 54 53 53 53 53 55 57 58 57 57 56 55 54 53 52 52 53 54 55 54 55 55 56 54 53 53 54 55 55 54 54 53 52 51 50 53 54 53 53 55 56 58 60 60 60 60 59 59 60 61 61 61 62 62 62 62 62 62 61 62 62 62 62 62 62 62 63 63 63 63 63 63 63 63 63 64 64 64 64 64 64 65 65 65 66 66 66 67 67 67 68 68 67 67 68 68 68 68 68
52 54 55 55 54 54 53 53 53 54 56 57 56 54 53 52 51 50 49 50 51 53 54 54 53 53 54 53 53 53 53 54 54 53 54 52 52 52 53 53 53 52 52 52 53 55 57 58 59 59 59 59 60 60 60 60 61 61 61 61 61 61 61 62 62 62 62 62 62 62 62 62 62 62 63 62 62 62 62 63 63 63 63 63 63 63 64 64 64 65 66 67 67 67 67 67 67 67 67 67 67 67 67
48 51 53 54 54 54 54 53 52 53 54 55 55 53 52 50 49 49 48 48 50 51 52 52 51 50 49 50 50 51 53 55 54 53 54 52 51 51 53 53 52 51 52 52 51 51 51 52 53 56 58 58 58 58 59 59 60 60 61 61 61 61 61 62 62 62 62 62 62 62 62 62 62 62 62 62 62 62 62 62 62 62 63 63 63 63 62 62 62 62 63 65 66 66 66 67 67 67 67 67 67 67 67
44 46 50 52 54 54 53 53 52 52 52 53 53 52 51 49 48 48 47 48 49 50 51 52 50 48 48 47 47 48 49 53 54 53 51 52 52 50 48 49 50 51 53 52 50 48 47 47 48 51 56 57 58 58 59 60 60 60 60 61 61 61 61 62 62 62 62 61 61 61 62 62 62 62 62 62 62 62 62 62 62 62 62 62 62 62 62 62 62 61 62 62 63 64 65 66 67 67 67 67 67 67 67
43 44 46 50 52 53 53 53 53 52 52 52 51 51 50 49 48 47 47 47 48 49 49 50 49 48 46 45 45 46 46 50 53 54 52 51 51 52 49 48 48 48 48 49 48 48 49 51 52 53 55 55 55 57 58 59 59 60 60 61 61 61 61 61 61 61 61 61 61 61 61 61 62 62 62 62 62 62 62 61 62 62 62 62 62 62 62 62 62 61 62 61 61 62 62 65 66 66 66 66 66 67 67
43 43 44 48 50 53 53 53 53 52 52 52 51 51 50 50 49 48 46 46 47 48 48 49 48 47 46 45 45 45 45 47 48 50 52 50 51 52 52 51 48 46 44 46 47 48 49 51 50 50 52 52 53 54 56 57 57 58 59 60 61 61 61 61 61 61 61 61 61 61 61 61 61 62 62 62 61 61 61 61 61 61 62 62 62 62 62 62 62 62 62 61 60 61 62 64 65 66 66 66 66 66 66
43 44 44 46 48 51 53 53 53 53 52 52 52 52 51 51 50 49 48 47 47 47 48 48 48 47 46 46 46 45 44 45 48 52 52 51 51 51 49 51 51 50 49 48 47 47 50 50 48 48 49 50 51 53 54 54 55 56 57 58 58 59 60 60 61 61 61 61 61 61 61 61 61 61 62 61 61 60 60 60 60 60 61 61 62 62 62 62 62 62 62 60 60 60 61 62 64 65 65 65 66 66 66
44 44 44 45 47 50 53 53 53 53 53 53 53 53 52 52 51 51 50 48 47 47 48 48 48 47 46 46 46 46 44 44 45 48 50 50 50 50 49 48 49 50 51 51 50 50 50 49 48 46 47 48 49 51 52 53 53 55 56 57 57 57 58 59 60 60 60 60 60 61 61 61 61 61 61 61 60 60 59 59 59 60 60 61 61 62 62 61 61 61 61 60 59 59 60 62 63 64 64 65 65 65 65
44 45 45 46 46 48 50 52 53 53 53 53 53 53 53 52 51 51 50 49 48 48 48 48 48 48 48 47 46 46 44 44 44 45 47 49 49 49 48 48 48 49 50 49 48 48 50 49 48 48 45 45 46 48 49 51 52 54 55 55 56 57 57 57 58 58 58 59 59 59 60 60 61 61 61 61 60 60 59 58 59 59 59 60 61 61 61 61 61 61 60 60 59 60 61 62 63 63 63 64 64 64 64
45 46 46 46 46 46 47 49 50 51 53 53 53 53 53 52 51 51 50 49 49 49 48 48 48 48 50 48 46 46 45 44 43 44 47 49 49 48 48 48 47 46 48 46 45 44 47 48 48 48 46 46 45 46 46 48 50 52 53 53 53 54 57 57 57 57 57 57 58 58 59 60 60 60 60 60 60 59 58 58 58 58 59 60 60 61 61 61 61 60 60 59 59 60 61 62 62 63 63 63 63 63 63
45 46 47 47 46 45 45 47 49 50 52 53 53 53 53 52 51 50 50 49 50 50 48 48 48 48 49 48 47 46 45 44 43 43 46 48 48 48 49 48 46 45 45 44 43 42 44 44 46 47 47 47 45 44 44 45 48 50 53 51 51 51 54 56 57 57 57 57 57 57 57 58 59 59 60 60 60 59 58 58 57 58 58 59 59 60 60 60 60 60 59 59 58 59 60 61 62 62 62 62 62 62 62